When you browse on this site, cookies collect data to enhance your experience and personalize the content and advertising you see.
Visit our Privacy Policy to learn more. By continuing to use the site, you agree to this use of cookies and data.
  • In United Kingdom
  • List of Countries
  • For 7 days
  • Water Temperature
  • Satellite Maps
  • Weather Map
  • Weather Widgets
  • user-avatar
    Login

    Hourly Weather Larga Noua

    Today, 20 February, Wednesday

    Time Temperature Precipitation Wind Pressure Humidity
    00:00 +5°C° 0 mm 5 mps 757 mmHg 83%
    01:00 +3°C° 0 mm 5 mps 757 mmHg 86%
    02:00 +3°C° 0 mm 4 mps 756 mmHg 89%
    03:00 +3°C° 0 mm 4 mps 756 mmHg 91%
    04:00 +3°C° 0 mm 4 mps 756 mmHg 93%
    05:00 +3°C° 0 mm 3 mps 755 mmHg 95%
    06:00 +3°C° 0 mm 3 mps 755 mmHg 95%
    07:00 +4°C° 0 mm 2 mps 755 mmHg 95%
    08:00 +4°C° 0 mm 2 mps 755 mmHg 96%
    09:00 +5°C° 0 mm 2 mps 755 mmHg 82%
    10:00 +7°C° 0 mm 3 mps 755 mmHg 69%
    11:00 +9°C° 0 mm 3 mps 755 mmHg 55%
    12:00 +10°C° 0 mm 4 mps 755 mmHg 51%
    13:00 +11°C° 0 mm 4 mps 755 mmHg 47%
    14:00 +12°C° 0 mm 5 mps 755 mmHg 42%
    15:00 +12°C° 0 mm 4 mps 755 mmHg 46%
    16:00 +11°C° 0 mm 4 mps 755 mmHg 50%
    17:00 +11°C° 0 mm 4 mps 755 mmHg 54%
    18:00 +10°C° 0 mm 4 mps 756 mmHg 58%
    19:00 +8°C° 0 mm 5 mps 756 mmHg 63%
    20:00 +7°C° 0 mm 5 mps 757 mmHg 67%
    21:00 +7°C° 0.1 mm 5 mps 757 mmHg 68%
    22:00 +6°C° 0.1 mm 4 mps 758 mmHg 68%
    23:00 +7°C° 0.1 mm 3 mps 758 mmHg 69%

    Tomorrow, 21 February, Thursday

    Time Temperature Precipitation Wind Pressure Humidity
    00:00 +5°C° 0 mm 3 mps 759 mmHg 70%
    01:00 +4°C° 0 mm 3 mps 759 mmHg 72%
    02:00 +4°C° 0 mm 3 mps 759 mmHg 73%
    03:00 +3°C° 0 mm 3 mps 759 mmHg 73%
    04:00 +3°C° 0 mm 3 mps 759 mmHg 72%
    05:00 +3°C° 0 mm 3 mps 760 mmHg 72%
    06:00 +3°C° 0 mm 3 mps 760 mmHg 73%
    07:00 +3°C° 0 mm 3 mps 760 mmHg 74%
    08:00 +3°C° 0 mm 3 mps 760 mmHg 74%
    09:00 +5°C° 0 mm 4 mps 760 mmHg 65%
    10:00 +6°C° 0 mm 5 mps 760 mmHg 55%
    11:00 +7°C° 0 mm 6 mps 761 mmHg 46%
    12:00 +8°C° 0 mm 6 mps 760 mmHg 44%
    13:00 +8°C° 0 mm 6 mps 760 mmHg 43%
    14:00 +9°C° 0 mm 6 mps 760 mmHg 41%
    15:00 +8°C° 0 mm 5 mps 760 mmHg 43%
    16:00 +8°C° 0 mm 4 mps 760 mmHg 44%
    17:00 +8°C° 0 mm 4 mps 760 mmHg 45%
    18:00 +8°C° 0 mm 3 mps 760 mmHg 49%
    19:00 +7°C° 0 mm 2 mps 760 mmHg 53%
    20:00 +8°C° 0 mm 1 mps 760 mmHg 57%
    21:00 +7°C° 0 mm 1 mps 760 mmHg 59%
    22:00 +6°C° 0 mm 2 mps 760 mmHg 61%
    23:00 +5°C° 0 mm 2 mps 760 mmHg 62%

    Day after tomorrow, 22 February, Friday

    Time Temperature Precipitation Wind Pressure Humidity
    00:00 +5°C° 0 mm 2 mps 759 mmHg 64%
    01:00 +4°C° 0 mm 3 mps 759 mmHg 66%
    02:00 +4°C° 0 mm 3 mps 758 mmHg 67%
    03:00 +3°C° 0 mm 3 mps 758 mmHg 67%
    04:00 +3°C° 0 mm 3 mps 757 mmHg 67%
    05:00 +3°C° 0 mm 3 mps 756 mmHg 67%
    06:00 +3°C° 0.1 mm 3 mps 755 mmHg 68%
    07:00 +3°C° 0.1 mm 3 mps 755 mmHg 68%
    08:00 +4°C° 0.1 mm 3 mps 754 mmHg 68%
    09:00 +4°C° 0.3 mm 3 mps 754 mmHg 69%
    10:00 +5°C° 0.3 mm 3 mps 753 mmHg 69%
    11:00 +5°C° 0.3 mm 3 mps 753 mmHg 70%
    12:00 +6°C° 0.2 mm 4 mps 753 mmHg 68%
    13:00 +6°C° 0.2 mm 4 mps 753 mmHg 66%
    14:00 +7°C° 0.2 mm 5 mps 752 mmHg 64%
    15:00 +4°C° 0.2 mm 7 mps 753 mmHg 68%
    16:00 0°C° 0.2 mm 9 mps 754 mmHg 71%
    17:00 -3°C° 0.2 mm 11 mps 755 mmHg 74%
    18:00 -4°C° 0 mm 11 mps 756 mmHg 70%
    19:00 -6°C° 0 mm 11 mps 758 mmHg 65%
    20:00 -7°C° 0 mm 11 mps 759 mmHg 61%
    21:00 -8°C° 0 mm 11 mps 760 mmHg 58%
    22:00 -9°C° 0 mm 10 mps 761 mmHg 55%
    23:00 -9°C° 0 mm 10 mps 762 mmHg 52%

    23 February, Saturday

    Time Temperature Precipitation Wind Pressure Humidity
    00:00 -10°C° 0 mm 10 mps 762 mmHg 51%
    01:00 -10°C° 0 mm 10 mps 762 mmHg 50%
    02:00 -10°C° 0 mm 10 mps 763 mmHg 48%
    03:00 -10°C° 0 mm 10 mps 763 mmHg 48%
    04:00 -11°C° 0 mm 9 mps 763 mmHg 48%
    05:00 -11°C° 0 mm 9 mps 764 mmHg 47%
    06:00 -10°C° 0 mm 9 mps 764 mmHg 46%
    07:00 -10°C° 0 mm 9 mps 764 mmHg 44%
    08:00 -10°C° 0 mm 9 mps 765 mmHg 43%
    09:00 -10°C° 0 mm 9 mps 765 mmHg 41%
    10:00 -9°C° 0 mm 9 mps 765 mmHg 39%
    11:00 -9°C° 0 mm 9 mps 766 mmHg 38%
    12:00 -8°C° 0 mm 9 mps 766 mmHg 37%
    13:00 -8°C° 0 mm 9 mps 766 mmHg 36%
    14:00 -6°C° 0 mm 8 mps 766 mmHg 35%
    15:00 -7°C° 0 mm 8 mps 766 mmHg 39%
    16:00 -7°C° 0 mm 8 mps 766 mmHg 43%
    17:00 -7°C° 0 mm 8 mps 767 mmHg 47%
    18:00 -8°C° 0 mm 7 mps 767 mmHg 50%
    19:00 -8°C° 0 mm 7 mps 767 mmHg 53%
    20:00 -9°C° 0 mm 7 mps 767 mmHg 55%
    21:00 -9°C° 0 mm 6 mps 767 mmHg 55%
    22:00 -9°C° 0 mm 6 mps 767 mmHg 54%
    23:00 -9°C° 0 mm 6 mps 767 mmHg 53%

    24 February, Sunday

    Time Temperature Precipitation Wind Pressure Humidity
    00:00 -9°C° 0 mm 6 mps 767 mmHg 54%
    01:00 -9°C° 0 mm 6 mps 767 mmHg 55%
    02:00 -9°C° 0 mm 6 mps 767 mmHg 56%
    03:00 -9°C° 0 mm 6 mps 767 mmHg 57%
    04:00 -9°C° 0 mm 6 mps 767 mmHg 58%
    05:00 -9°C° 0 mm 6 mps 767 mmHg 59%
    06:00 -9°C° 0 mm 6 mps 767 mmHg 59%
    07:00 -9°C° 0 mm 7 mps 767 mmHg 59%
    08:00 -9°C° 0 mm 7 mps 767 mmHg 59%
    09:00 -9°C° 0 mm 7 mps 767 mmHg 57%
    10:00 -8°C° 0 mm 7 mps 767 mmHg 54%
    11:00 -7°C° 0 mm 7 mps 767 mmHg 52%
    12:00 -7°C° 0 mm 7 mps 767 mmHg 51%
    13:00 -6°C° 0 mm 7 mps 767 mmHg 50%
    14:00 -6°C° 0 mm 7 mps 766 mmHg 49%
    15:00 -6°C° 0 mm 7 mps 766 mmHg 50%
    16:00 -6°C° 0 mm 7 mps 766 mmHg 51%
    17:00 -5°C° 0 mm 6 mps 766 mmHg 52%
    18:00 -5°C° 0 mm 6 mps 767 mmHg 54%
    19:00 -6°C° 0 mm 5 mps 767 mmHg 57%
    20:00 -6°C° 0 mm 5 mps 767 mmHg 59%
    21:00 -6°C° 0 mm 5 mps 767 mmHg 61%
    22:00 -7°C° 0 mm 5 mps 768 mmHg 62%
    23:00 -7°C° 0 mm 5 mps 768 mmHg 64%

    25 February, Monday

    Time Temperature Precipitation Wind Pressure Humidity
    00:00 -7°C° 0 mm 5 mps 768 mmHg 63%
    01:00 -7°C° 0 mm 4 mps 767 mmHg 61%
    02:00 -7°C° 0 mm 4 mps 767 mmHg 60%
    03:00 -7°C° 0 mm 4 mps 767 mmHg 60%
    04:00 -7°C° 0 mm 5 mps 767 mmHg 60%
    05:00 -7°C° 0 mm 5 mps 767 mmHg 60%
    06:00 -8°C° 0 mm 6 mps 767 mmHg 60%
    07:00 -8°C° 0 mm 6 mps 766 mmHg 60%
    08:00 -8°C° 0 mm 7 mps 766 mmHg 61%
    09:00 -6°C° 0 mm 7 mps 766 mmHg 57%
    10:00 -4°C° 0 mm 6 mps 766 mmHg 53%
    11:00 -3°C° 0 mm 6 mps 766 mmHg 50%
    12:00 -2°C° 0 mm 6 mps 765 mmHg 51%
    13:00 -2°C° 0 mm 7 mps 764 mmHg 51%
    14:00 -1°C° 0 mm 7 mps 764 mmHg 52%
    15:00 -1°C° 0 mm 7 mps 763 mmHg 56%
    16:00 -2°C° 0 mm 6 mps 763 mmHg 59%
    17:00 -2°C° 0 mm 6 mps 762 mmHg 62%
    18:00 -1°C° 0 mm 5 mps 762 mmHg 68%
    19:00 -2°C° 0 mm 5 mps 762 mmHg 73%
    20:00 -2°C° 0 mm 4 mps 762 mmHg 78%
    21:00 -2°C° 0 mm 4 mps 761 mmHg 81%
    22:00 -3°C° 0 mm 4 mps 761 mmHg 84%
    23:00 -3°C° 0 mm 4 mps 760 mmHg 87%
    Show more